Regional Weather Roundup
Issued by NWS Charleston, SC

Current Version | Previous Version | Graphics & Text | Print | Product List | Glossary On
Versions: 1 2 3 4 5 6 7 8 9 10 11 12 13 14 15 16 17 18 19 20 21 22 23 24 25 26 27 28 29 30 31 32 33 34 35 36 37 38 39 40 41 42 43 44 45 46 47 48 49 50
000
ASUS42 KCHS 070627
RWRCHS

REGIONAL WEATHER ROUNDUP
NATIONAL WEATHER SERVICE CHARLESTON SC
200 AM EDT TUE JUL 07 2015

NOTE: "FAIR" INDICATES FEW OR NO CLOUDS BELOW 12,000 FEET WITH NO
SIGNIFICANT WEATHER AND/OR OBSTRUCTIONS TO VISIBILITY.

NOT ALL STATIONS ARE QUALITY CONTROLLED BY THE NATIONAL
WEATHER SERVICE. USE DATA WITH CAUTION...ESPECIALLY
DEWPOINT OBSERVATIONS.

SCZ027-030-031-034>040-042>050-070700-
...SOUTHEAST SOUTH CAROLINA...

CITY           SKY/WX    TMP DP  RH WIND       PRES   REMARKS
N CHARLESTON   PTCLDY    75  72  90 S3        30.10S
6HR MIN TEMP:  75; 6HR MAX TEMP:  81;

WATERFRONT PAR   N/A     79  75  87 VRB2      30.07S
MOUNT PLEASANT LGT RAIN  73  73 100 CALM      30.10S
JOHNS ISLAND   FAIR      77  75  94 CALM      30.10S
PINOPOLIS      NOT AVBL
MONCKS CORNER  FAIR      75  72  88 CALM      30.10S
SUMMERVILLE    FAIR      73  73 100 CALM      30.11R
BEAUFORT MCAS  PTCLDY    76  73  91 CALM      30.10S
6HR MIN TEMP:  76; 6HR MAX TEMP:  81;

BEAUFORT ARPT  FAIR      79  73  83 SW10      30.09S
HILTON HEAD IS PTCLDY    79  73  83 SW3       30.11S
WALTERBORO     PTCLDY    72  70  94 CALM      30.11S
ALLENDALE      FAIR      73  72  94 CALM      30.09S

...SOUTHERN MIDLANDS AND PEE DEE...

CITY           SKY/WX    TMP DP  RH WIND       PRES   REMARKS
GEORGETOWN     NOT AVBL
KINGSTREE      NOT AVBL
ORANGEBURG     CLEAR     74  72  93 SW3       30.10S
6HR MIN TEMP:  74; 6HR MAX TEMP:  84;

BARNWELL       FAIR      75  72  88 SW5       30.11R
AIKEN          NOT AVBL
MANNING        FAIR      75  72  88 SW3       30.10R
COLUMBIA       PTCLDY    76  70  82 W3        30.09R
6HR MIN TEMP:  76; 6HR MAX TEMP:  86;

SUMTER         CLEAR     75  72  90 SW3       30.07F
6HR MIN TEMP:  75; 6HR MAX TEMP:  84;

FLORENCE       CLEAR     76  73  91 S5        30.09S
6HR MIN TEMP:  75; 6HR MAX TEMP:  85;

MYRTLE BEACH   CLEAR     75  70  83 SW3       30.12
N MYRTLE BEACH CLEAR     77  71  82 W5        30.10S
6HR MIN TEMP:  77; 6HR MAX TEMP:  81;


$$

GAZ063-065-086>088-099>101-113>116-118-119-134>141-150-070700-
...SOUTHEAST GEORGIA...

CITY           SKY/WX    TMP DP  RH WIND       PRES   REMARKS
SAVANNAH ARPT  PTCLDY    74  71  91 CALM      30.11R
6HR MIN TEMP:  74; 6HR MAX TEMP:  77; 6HR PCP: TRACE;

HUNTER AAF     PTCLDY    74  74 100 SW2       30.08S
6HR MIN TEMP:  73; 6HR MAX TEMP:  75; 6HR PCP:  0.05;

FORT STEWART   PTCLDY    74  71  90 S2        30.09R
6HR MIN TEMP:  74; 6HR MAX TEMP:  78;

STATESBORO     NOT AVBL
SYLVANIA       PTCLDY    75  74  97 CALM      30.11S
CLAXTON        CLOUDY    75  73  94 CALM      30.10S

...CSRA...CENTRAL AND FAR SOUTHEAST GEORGIA...

CITY           SKY/WX    TMP DP  RH WIND       PRES   REMARKS
THOMSON        CLEAR     74  74  99 CALM      30.15S
AUGUSTA-BUSH   PTCLDY    72  70  93 CALM      30.09R
6HR MIN TEMP:  72; 6HR MAX TEMP:  81; 6HR PCP: TRACE;

AUGUSTA-DANIEL PTCLDY    77  70  79 W3        30.10F
SWAINSBORO     FAIR     N/A N/A N/A CALM      30.11S
VIDALIA        PTCLDY    73  70  88 CALM      30.11S
EASTMAN        FAIR      72  72 100 CALM      30.13S FOG
HAZLEHURST     FAIR      75  75  99 CALM      30.10S
ALMA           PTCLDY    73  71  93 CALM      30.11R
6HR MIN TEMP:  73; 6HR MAX TEMP:  83;

WAYCROSS       PTCLDY    77  75  95 CALM      30.11S
JESUP          FAIR      75  73  94 W3        30.11S
BAXLEY         MOCLDY    75  72  88 CALM      30.11S
BRUNSWICK      PTCLDY    73  72  94 SW3       30.11S
SAINT SIMONS   PTCLDY    76  71  85 SW8       30.10S
6HR MIN TEMP:  76; 6HR MAX TEMP:  79; 6HR PCP: TRACE;


$$

SCZ027-028-034-036>038-045-046-048>050-GAZ119-141-070700-
...LAKE AND SUPPLEMENTAL COASTAL OBSERVATIONS...

STATION/POSITION TIME  TEMP    WIND        PRES    WAVE   SWELL
                       AIR SEA DIR/SP/G            HT/PER HT/PER/DIR
                 (UTC) (F)     (DEG/KT/KT) (MB)    (FT/S) (FT/S/D)
UPR LAKE MARION  NOT AVBL
WINYAH BAY       0500   75     250/  3     1018.0
LAKE MURRAY      0500   80     220/  7/  8 1018.3R
ACE BASIN NERRS  NOT AVBL
FORT PULASKI     0600   78 83  240/  3/  4 1019.7F
SAPELO ISLAND    0600   78     230/  7     1019.0S

$$

ANZ835-935-AMZ111-154-330-350-352-354-370-450-454-472-070700-
...C-MAN AND BUOY OBSERVATIONS...

STATION/POSITION TIME  TEMP    WIND        PRES    WAVE   SWELL
                       AIR SEA DIR/SP/G            HT/PER HT/PER/DIR
                 (UTC) (F)     (DEG/KT/KT) (MB)    (FT/S) (FT/S/D)
BUOY 41004       0550   81 83  210/ 12/ 14 1018.8R   3/ 8   2/ 8
BUOY 41008       0450   78 78  200/  8/  8 1019.3    2/ 9   2/110/ 9
FOLLY BEACH CMAN 0600   80     230/ 10/ 12 1019.2S
CAPERS NEARSHORE 0508   81     230/ 12/ 16 1019.2F
FRIPP NEARSHORE  0500   81     210/ 14/ 17 1018.7F


STATION/POSITION TIME  TEMP    WIND        PRES    WAVE   SWELL
                       AIR SEA DIR/SP/G            HT/PER HT/PER/DIR
                 (UTC) (F)     (DEG/KT/KT) (MB)    (FT/S) (FT/S/D)
5E ST. MARYS GA  0521      78                N/A     2/ 9
FRYING PAN BUOY  0550   81 80  220/ 12/ 14 1019.6F   3/ 9   2/120/ 9
BUOY 41025       0550   81 81  200/ 14/ 17 1019.1F   3/ 8   2/120/ 8
CAPE LOOKOUT NC  0600   79     210/  9/ 10 1019.3F
BUOY 41002       0550   82 80  210/ 10/ 12 1021.6F   4/ 8   3/140/ 8
BUOY 41010       0520   82 83  130/ 10/ 12 1020.4F
ST AUGUSTINE FL  0600   73 71  230/  5/  6 1020.3F


$$


USA.gov is the U.S. government's official web portal to all federal, state and local government web resources and services.